Overview Statistics Trail Chart Weather Telemetry Raw packets
 

This is the latest recevied weather packets stored in our database for station/object WA1NHP. If no packets are shown the sender has not sent any weather packets the latest 10 day(s).

<< 23 24 25 26 27 28 29 >>
Time Temp. Humidity Pressure Rain* Wind** Luminosity Snow
1788272644 17.78° C 98% 1023.9 hPa 0 mm - 114 W/m² -
1788272044 17.78° C 98% 1023.9 hPa 0 mm - 105 W/m² -
1788271444 17.78° C 98% 1023.9 hPa 0 mm - 93 W/m² -
1788270844 17.78° C 98% 1023.9 hPa 0 mm - 72 W/m² -
1788270244 17.78° C 98% 1023.9 hPa 0 mm - 72 W/m² -
1788269644 17.78° C 98% 1023.9 hPa 0.25 mm - 40 W/m² -
1788269045 17.78° C 98% 1023.9 hPa 0.25 mm - 148 W/m² -
1788268443 17.78° C 98% 1023.9 hPa 0.25 mm - 86 W/m² -
1788267844 17.78° C 98% 1023.9 hPa 0.25 mm - 91 W/m² -
1788267243 17.78° C 98% 1023.9 hPa 0.51 mm - 98 W/m² -
1788266643 17.78° C 98% 1023.9 hPa 1.02 mm - 53 W/m² -
1788266044 17.22° C 98% 1023.9 hPa 1.52 mm - 51 W/m² -
1788265444 17.22° C 98% 1023.9 hPa 2.29 mm - 19 W/m² -
1788264843 17.22° C 98% 1023.9 hPa 2.54 mm - 18 W/m² -
1788264244 17.22° C 98% 1023.9 hPa 2.79 mm - 26 W/m² -
1788263643 17.22° C 98% 1023.9 hPa 3.05 mm - 21 W/m² -
1788262443 17.22° C 97% 1023.9 hPa 1.78 mm - 0 W/m² -
1788261844 17.22° C 97% 1023.9 hPa 1.27 mm - 0 W/m² -
1788261244 17.22° C 97% 1023.9 hPa 1.02 mm - 0 W/m² -
1788260643 17.22° C 97% 1023.9 hPa 0.76 mm - 0 W/m² -
1788260044 17.22° C 97% 1023.9 hPa 0.25 mm - 0 W/m² -
1788259444 17.22° C 97% 1023.9 hPa 0.25 mm - 0 W/m² -
1788258843 17.22° C 97% 1023.9 hPa 0.51 mm - 0 W/m² -
1788258243 17.22° C 97% 1023.9 hPa 0.25 mm - 0 W/m² -
1788257644 17.22° C 97% 1023.9 hPa 0.25 mm - 0 W/m² -

* Rain latest hour (hover to see other rain measurements)
** Current wind speed in m/s (hover to see current wind gust speed)